Home   Weather   Middlesbrough   Past weeks

Flag for United Kingdom Past Weather in Middlesbrough, England, United Kingdom — Yesterday and Last 2 Weeks

Now
45 °F

Overcast.


Feels Like: 43 °F
Forecast: 46 / 55 °F
Wind: 3 mph from Southeast

Location: Leeming

Current Time: Apr 29, 2017 at 4:52:27 am

Latest Report: Apr 29, 2017 at 3:50 am


Visibility: N/A

Pressure: 29.95 "Hg

Humidity: 87%

Dew Point: 41 °F

Location of MiddlesbroughLocation

Past Weather in Middlesbrough — Graph

°F

Middlesbrough Temperature Yesterday

Maximum temperature yesterday: 52 °F (at 1:50 pm)
Minimum temperature yesterday: 34 °F (at 4:50 am)
Average temperature yesterday: 46 °F

High & Low Weather Summary for the Past Weeks

 TemperatureHumidityPressure
High61 °F (Apr 20, 2:50 pm)100% (Apr 16, 10:50 pm)30.60 "Hg (Apr 16, 10:50 pm)
Low32 °F (Apr 18, 4:50 am)21% (Apr 24, 5:50 pm)29.83 "Hg (Apr 14, 6:50 pm)
Average45 °F74%30.18 "Hg
* Reported Apr 14 2:50 am — Apr 29 2:50 am, Middlesbrough, Weather by CustomWeather, © 2017

Note: Actual official high and low records may vary slightly from our data, if they occured in-between our weather recording intervals... More about our weather records

Advertising

Middlesbrough Weather History for the Previous 24 Hours

Scroll right to see more
 ConditionsComfort  
Time TempWeatherWind HumidityBarometerVisibility
2:50 am
Sat, Apr 29
45 °FOvercast.5 mph87%29.95 "HgN/A
1:50 am45 °FOvercast.5 mph81%29.95 "HgN/A
12:50 am45 °FOvercast.5 mph81%29.98 "HgN/A
11:50 pm
Fri, Apr 28
46 °FOvercast.9 mph76%29.98 "HgN/A
10:50 pm46 °FOvercast.7 mph76%29.98 "HgN/A
9:50 pm48 °FOvercast.9 mph71%29.98 "HgN/A
8:50 pm48 °FOvercast.7 mph71%29.98 "HgN/A
7:50 pm50 °FOvercast.7 mph62%29.98 "HgN/A
6:50 pm52 °FOvercast.7 mph54%29.98 "HgN/A
5:50 pm52 °FOvercast.5 mph50%29.98 "HgN/A
4:50 pm52 °FOvercast.3 mph50%29.98 "HgN/A
3:50 pm52 °FPartly sunny.7 mph47%29.98 "HgN/A
2:50 pm52 °FPartly sunny.3 mph50%29.98 "HgN/A
1:50 pm52 °FPartly sunny.3 mph54%30.01 "HgN/A
12:50 pm50 °FPartly sunny.5 mph54%30.01 "HgN/A
11:50 am48 °FPartly sunny.9 mph58%30.01 "HgN/A
10:50 am48 °FPartly sunny.6 mph62%30.01 "HgN/A
9:50 am48 °FPartly sunny.8 mph66%30.04 "HgN/A
8:50 am46 °FPassing clouds.10 mph71%30.04 "HgN/A
7:50 am43 °FPassing clouds.7 mph76%30.04 "HgN/A
6:50 am39 °FScattered clouds.7 mph81%30.04 "HgN/A
5:50 am34 °FChilly.6 mph93%30.04 "HgN/A
4:50 am34 °FChilly.6 mph93%30.04 "HgN/A
Weather by CustomWeather, © 2017

See weather overviewHow to use our weather pages